EW3567 Weather Reports


Display with metric or nautical units.
time (UTC)temp
F
wind
direction
speed
MPH
gust
MPH
rain 1hr
in
rain 24hr
in
rain mn
in
humidity
%
barometer
mb
20190116155204 46 293 0.0 0.0 0.00 0.00 0.00 79 1018.3
20190116154704 46 293 0.0 1.0 0.00 0.00 0.00 79 1018.3
20190116154204 46 306 0.0 0.0 0.00 0.00 0.00 79 1018.3
20190116153704 47 306 0.0 0.0 0.00 0.00 0.00 79 1018.3
20190116153205 47 312 0.0 1.0 0.00 0.00 0.00 79 1018.3
20190116152704 47 302 1.0 2.0 0.00 0.00 0.00 79 1018.3
20190116152205 47 247 0.0 0.0 0.00 0.00 0.00 79 1018.3
20190116151704 47 247 1.0 3.0 0.00 0.00 0.00 79 1018.3
20190116151204 47 228 0.0 3.0 0.00 0.00 0.00 78 1018.3
20190116150704 47 209 1.0 3.0 0.00 0.00 0.00 78 1018.3
20190116150204 47 210 0.0 2.0 0.00 0.00 0.00 78 1018.3
20190116145703 47 226 0.0 0.0 0.00 0.00 0.00 78 1018.3
20190116145204 47 226 1.0 3.0 0.00 0.00 0.00 78 1018.3
20190116144704 47 233 0.0 1.0 0.00 0.00 0.00 78 1018.3
20190116144204 47 225 0.0 2.0 0.00 0.00 0.00 78 1018.4
20190116143704 47 218 0.0 3.0 0.00 0.00 0.00 78 1018.5
20190116143204 47 216 1.0 3.0 0.00 0.00 0.00 78 1018.4
20190116142704 47 242 0.0 0.0 0.00 0.00 0.00 78 1018.5
20190116142204 47 242 0.0 1.0 0.00 0.00 0.00 77 1018.5
20190116141704 47 243 0.0 2.0 0.00 0.00 0.00 77 1018.5
20190116141204 47 220 1.0 3.0 0.00 0.00 0.00 77 1018.5
20190116140704 47 214 0.0 3.0 0.00 0.00 0.00 77 1018.5
20190116140204 47 207 1.0 3.0 0.00 0.00 0.00 77 1018.5
20190116135704 47 168 1.0 3.0 0.00 0.00 0.00 77 1018.6
20190116135205 47 215 2.0 5.0 0.00 0.00 0.00 77 1018.6
20190116134704 47 201 1.0 3.0 0.00 0.00 0.00 76 1018.6
20190116134204 47 207 3.0 8.0 0.00 0.00 0.00 76 1018.6
20190116133704 47 193 3.0 7.0 0.00 0.00 0.00 76 1018.6
20190116133205 47 202 2.0 5.0 0.00 0.00 0.00 76 1018.6
20190116132704 47 208 2.0 3.0 0.00 0.00 0.00 75 1018.7
20190116132205 48 221 1.0 3.0 0.00 0.00 0.00 75 1018.7
20190116131704 48 202 1.0 3.0 0.00 0.00 0.00 75 1018.6
20190116131204 48 262 0.0 3.0 0.00 0.00 0.00 75 1018.6
20190116130705 48 252 1.0 3.0 0.00 0.00 0.00 75 1018.7
20190116130205 48 235 0.0 5.0 0.00 0.00 0.00 75 1018.7
20190116125705 48 215 1.0 3.0 0.00 0.00 0.00 75 1018.7
20190116125204 48 234 0.0 3.0 0.00 0.00 0.00 75 1018.7
20190116124704 48 244 0.0 3.0 0.00 0.00 0.00 76 1018.7
20190116124205 48 235 1.0 3.0 0.00 0.00 0.00 76 1018.7
20190116123704 48 216 1.0 3.0 0.00 0.00 0.00 76 1018.7
20190116123204 48 259 1.0 6.0 0.00 0.00 0.00 75 1018.8
20190116122705 48 281 1.0 6.0 0.00 0.00 0.00 75 1018.8
20190116122205 48 218 1.0 3.0 0.00 0.00 0.00 75 1018.9
20190116121705 47 231 1.0 13.0 0.00 0.00 0.00 76 1018.9
20190116121206 35 222 2.0 3.0 0.00 0.00 0.00 78 1019.5
20190115230204 35 8 2.0 3.0 0.00 0.00 0.00 78 1019.5
20190115225704 35 10 2.0 3.0 0.00 0.00 0.00 79 1019.5
20190115225205 34 4 3.0 5.0 0.00 0.00 0.00 79 1019.6
20190115224704 34 0 3.0 5.0 0.00 0.00 0.00 79 1019.6
20190115224205 34 4 3.0 3.0 0.00 0.00 0.00 78 1019.6
20190115223705 34 3 2.0 3.0 0.00 0.00 0.00 78 1019.6
20190115223204 34 5 2.0 3.0 0.00 0.00 0.00 78 1019.7
20190115222705 35 6 2.0 3.0 0.00 0.00 0.00 77 1019.7
20190115222204 35 7 2.0 3.0 0.00 0.00 0.00 77 1019.7
20190115221704 35 4 3.0 5.0 0.00 0.00 0.00 78 1019.7
20190115221204 35 14 3.0 5.0 0.00 0.00 0.00 78 1019.8
20190115220705 35 5 3.0 3.0 0.00 0.00 0.00 78 1019.8
20190115220204 35 9 3.0 5.0 0.00 0.00 0.00 78 1019.8
20190115215704 35 2 3.0 5.0 0.00 0.00 0.00 79 1019.8
20190115215205 34 4 3.0 5.0 0.00 0.00 0.00 79 1019.9
20190115214704 34 3 3.0 5.0 0.00 0.00 0.00 79 1019.8
20190115214205 34 15 3.0 5.0 0.00 0.00 0.00 79 1019.8
20190115213705 34 2 3.0 5.0 0.00 0.00 0.00 79 1019.9
20190115213204 34 358 5.0 7.0 0.00 0.00 0.00 80 1019.9
20190115212705 33 2 5.0 6.0 0.00 0.00 0.00 79 1019.9
20190115212204 34 19 3.0 3.0 0.00 0.00 0.00 78 1019.8
20190115211705 34 1 2.0 3.0 0.00 0.00 0.00 78 1019.8
20190115211205 34 2 2.0 5.0 0.00 0.00 0.00 78 1019.7
20190115210704 34 6 3.0 3.0 0.00 0.00 0.00 79 1019.7
20190115210205 34 7 3.0 3.0 0.00 0.00 0.00 79 1019.7
20190115205705 34 2 3.0 5.0 0.00 0.00 0.00 79 1019.6
20190115205205 34 8 3.0 5.0 0.00 0.00 0.00 79 1019.6
20190115204704 34 0 3.0 5.0 0.00 0.00 0.00 79 1019.5
20190115204205 34 8 2.0 3.0 0.00 0.00 0.00 79 1019.4
20190115203704 34 18 2.0 3.0 0.00 0.00 0.00 78 1019.4
20190115203204 34 2 2.0 3.0 0.00 0.00 0.00 78 1019.3
20190115202705 34 12 2.0 3.0 0.00 0.00 0.00 78 1019.3
20190115202205 34 356 2.0 3.0 0.00 0.00 0.00 78 1019.3
20190115201705 34 12 2.0 3.0 0.00 0.00 0.00 77 1019.2
20190115201205 35 13 2.0 3.0 0.00 0.00 0.00 76 1019.2
20190115200705 35 7 2.0 3.0 0.00 0.00 0.00 77 1019.2
20190115200204 35 8 2.0 3.0 0.00 0.00 0.00 77 1019.2
20190115195704 35 6 1.0 3.0 0.00 0.00 0.00 77 1019.2
20190115195205 35 3 2.0 3.0 0.00 0.00 0.00 77 1019.0
20190115194704 35 23 2.0 3.0 0.00 0.00 0.00 77 1019.0
20190115194205 36 23 2.0 3.0 0.00 0.00 0.00 76 1018.9
20190115193705 36 1 2.0 3.0 0.00 0.00 0.00 76 1018.9
20190115193204 36 23 2.0 3.0 0.00 0.00 0.00 75 1018.9
20190115192705 36 357 2.0 3.0 0.00 0.00 0.00 75 1018.9
20190115192205 36 7 2.0 3.0 0.00 0.00 0.00 75 1019.0
20190115191704 37 7 2.0 3.0 0.00 0.00 0.00 75 1018.9
20190115191205 37 355 2.0 3.0 0.00 0.00 0.00 75 1019.0
20190115190705 37 341 2.0 3.0 0.00 0.00 0.00 75 1018.9
20190115190205 38 341 2.0 3.0 0.00 0.00 0.00 76 1018.9
20190115185704 38 341 2.0 3.0 0.00 0.00 0.00 75 1018.8
20190115185205 39 341 0.0 2.0 0.00 0.00 0.00 75 1018.8
20190115184705 39 341 1.0 3.0 0.00 0.00 0.00 73 1018.8
20190115184204 40 308 0.0 2.0 0.00 0.00 0.00 74 1018.9
20190115183705 40 294 0.0 0.0 0.00 0.00 0.00 73 1018.8
20190115183204 41 294 0.0 2.0 0.00 0.00 0.00 73 1018.7
20190115182704 41 293 0.0 0.0 0.00 0.00 0.00 73 1018.8
20190115182204 41 293 0.0 0.0 0.00 0.00 0.00 72 1018.7
20190115181704 42 293 0.0 1.0 0.00 0.00 0.00 72 1018.8
20190115181204 42 293 0.0 1.0 0.00 0.00 0.00 72 1018.8
20190115180704 42 293 0.0 3.0 0.00 0.00 0.00 71 1018.7
20190115180204 42 275 0.0 3.0 0.00 0.00 0.00 71 1018.7
20190115175705 42 268 0.0 3.0 0.00 0.00 0.00 70 1018.7
20190115175204 42 268 1.0 2.0 0.00 0.00 0.00 69 1018.7
20190115174705 42 271 2.0 5.0 0.00 0.00 0.00 69 1018.7
20190115174204 42 243 1.0 3.0 0.00 0.00 0.00 68 1018.6
20190115173705 42 254 1.0 3.0 0.00 0.00 0.00 67 1018.6
20190115173204 43 216 1.0 3.0 0.00 0.00 0.00 66 1018.5
20190115172704 43 296 0.0 2.0 0.00 0.00 0.00 65 1018.4
20190115172205 43 309 1.0 3.0 0.00 0.00 0.00 65 1018.3
20190115171704 43 284 1.0 7.0 0.00 0.00 0.00 65 1018.3
20190115171204 43 254 2.0 5.0 0.00 0.00 0.00 65 1018.4
20190115170705 43 270 1.0 3.0 0.00 0.00 0.00 64 1018.4
20190115161705 43 297 1.0 10.0 0.00 0.00 0.00 58 1018.2
20190115161204 43 304 3.0 10.0 0.00 0.00 0.00 58 1018.1
20190115160704 43 283 3.0 9.0 0.00 0.00 0.00 58 1018.1
20190115160204 44 268 1.0 7.0 0.00 0.00 0.00 57 1018.0
20190115155705 44 292 1.0 9.0 0.00 0.00 0.00 57 1018.0